(175766) = 1998 VW18 = 2002 UX44

Discovered at Socorro on 1998-11-10 by LINEAR.

Orbit

Orbit type: Main Belt

Note: WebGL enabled browser required.

epoch2023-09-13.0
epoch JD2460200.5
perihelion date2020-03-31.70615
perihelion JD2458940.20615
argument of perihelion (°)193.21766
ascending node (°)254.51645
inclination (°)3.54282
eccentricity0.2742788
perihelion distance (AU)1.8947439
Tisserand w.r.t. Jupiter3.4
ΔV w.r.t. Earth (km/sec)8.8
semimajor axis (AU)2.6108425
mean anomaly (°)294.44532
mean daily motion (°/day)0.23363230
aphelion distance (AU)3.327
period (years)4.22
P-vector [x]0.03995813
P-vector [y]0.92227799
P-vector [z]0.38445630
Q-vector [x]-0.99742515
Q-vector [y]0.05974806
Q-vector [z]-0.03966401
absolute magnitude16.39
phase slope0.15
uncertainty0
referenceMPEC 2024-A48
observations used679
oppositions14
arc length (days)9147
first opposition used1998
last opposition used2023
residual rms (arc-secs)0.67
perturbers coarse indicatorM-v
perturbers precise indicator003Ek
first observation date used1998-11-10.0
last observation date used2023-11-26.0
computer nameMPCLINUX
JD of orbit computation2456909.328146
perihelion JD uncertainty (days)5.2019E-05
argument of perihelion uncertainty (°)8.8650E-05
ascending node uncertainty (°)8.8137E-05
inclination uncertainty (°)4.0818E-06
eccentricity uncertainty 4.7997E-08
perihelion distance uncertainty (AU)1.1937E-07
Minimum Orbit Intersection Distances (in AU)
for orbit epoch: 2460200.5, reference: E2024-A48
Mercury1.58783
Venus1.17525
Earth0.91004
Mars0.32284
Jupiter1.90885
Saturn6.76562
Uranus15.757
Neptune27.0769

Observations

700 total observations over interval: 1998 11 10.25068 – 2023 11 26.250119
These data are available for download (format description).

Date (UT) J2000 RA J2000 Dec Magn Location Ref
1998 11 10.25068 02 33 04.43 +18 42 00.1 18.6   704 – Lincoln Laboratory ETS, New Mexico MPS 3147
1998 11 10.26971 02 33 03.46 +18 41 53.4 19.2   704 – Lincoln Laboratory ETS, New Mexico MPS 3147
1998 11 10.28886 02 33 02.48 +18 41 44.6 19.3   704 – Lincoln Laboratory ETS, New Mexico MPS 3147
1998 11 10.30787 02 33 01.23 +18 41 35.8 18.9   704 – Lincoln Laboratory ETS, New Mexico MPS 3147
1998 11 11.17416 02 32 16.74 +18 35 53.1   704 – Lincoln Laboratory ETS, New Mexico MPS 3147
1998 11 11.19593 02 32 15.48 +18 35 44.3 18.3   704 – Lincoln Laboratory ETS, New Mexico MPS 3147
1998 11 11.21806 02 32 14.39 +18 35 35.5 19.3   704 – Lincoln Laboratory ETS, New Mexico MPS 3147
1998 11 11.23984 02 32 13.09 +18 35 26.7 19.2   704 – Lincoln Laboratory ETS, New Mexico MPS 3147
1998 11 11.26161 02 32 11.93 +18 35 17.9 19.5   704 – Lincoln Laboratory ETS, New Mexico MPS 3147
1998 11 15.31351 02 28 47.42 +18 08 08.3 18.4 R 699 – Lowell Observatory-LONEOS MPS 4138
1998 11 15.33341 02 28 46.42 +18 07 59.6   699 – Lowell Observatory-LONEOS MPS 4138
1998 11 15.35330 02 28 45.50 +18 07 50.2   699 – Lowell Observatory-LONEOS MPS 4138
1998 11 18.20896 02 26 30.44 +17 48 43.2 19.2 V 691 – Steward Observatory, Kitt Peak-Spacewatch MPS 79523
1998 11 18.23126 02 26 29.34 +17 48 34.3 19.2 V 691 – Steward Observatory, Kitt Peak-Spacewatch MPS 79523
1998 11 18.25307 02 26 28.28 +17 48 25.5 19.2 V 691 – Steward Observatory, Kitt Peak-Spacewatch MPS 79523
2002 09 06.26752 00 22 18.69 +08 34 48.0 19.6   704 – Lincoln Laboratory ETS, New Mexico MPS 77785
2002 09 06.28144 00 22 18.14 +08 34 44.4 20.1   704 – Lincoln Laboratory ETS, New Mexico MPS 77785
2002 09 06.30912 00 22 17.07 +08 34 40.1 19.9   704 – Lincoln Laboratory ETS, New Mexico MPS 77785
2002 09 06.32316 00 22 16.51 +08 34 37.3 20.2   704 – Lincoln Laboratory ETS, New Mexico MPS 77785
2002 10 04.25464 23 59 17.54 +06 10 54.5 19.3   704 – Lincoln Laboratory ETS, New Mexico MPS 77785
2002 10 04.27018 23 59 16.59 +06 10 48.3 19.3   704 – Lincoln Laboratory ETS, New Mexico MPS 77785
2002 10 04.28599 23 59 15.79 +06 10 42.7 19.4   704 – Lincoln Laboratory ETS, New Mexico MPS 77785
2002 10 04.30165 23 59 14.95 +06 10 36.7 19.4   704 – Lincoln Laboratory ETS, New Mexico MPS 77785
2002 10 04.31739 23 59 14.04 +06 10 30.3 19.6   704 – Lincoln Laboratory ETS, New Mexico MPS 77785
2002 10 31.16747 23 41 53.40 +03 27 09.6 19.4   704 – Lincoln Laboratory ETS, New Mexico MPS 74205
2002 10 31.18463 23 41 53.08 +03 27 04.7 20.0   704 – Lincoln Laboratory ETS, New Mexico MPS 74205
2002 10 31.20196 23 41 52.76 +03 27 00.7 20.0   704 – Lincoln Laboratory ETS, New Mexico MPS 74205
2002 10 31.21922 23 41 52.32 +03 26 56.0 19.8   704 – Lincoln Laboratory ETS, New Mexico MPS 74205
2002 10 31.23632 23 41 51.97 +03 26 49.8 19.9   704 – Lincoln Laboratory ETS, New Mexico MPS 74205
2002 11 05.14427 23 40 42.59 +03 06 22.4 20.2 V 291 – LPL/Spacewatch II MPS 74205
2002 11 05.16734 23 40 42.33 +03 06 17.3 20.2 V 291 – LPL/Spacewatch II MPS 74205
2002 11 05.19051 23 40 42.05 +03 06 12.3 20.2 V 291 – LPL/Spacewatch II MPS 74205
2004 03 18.34772 13 04 53.34 -12 19 50.1 19.8   704 – Lincoln Laboratory ETS, New Mexico MPS 101965
2004 03 18.35885 13 04 52.84 -12 19 47.2 19.8   704 – Lincoln Laboratory ETS, New Mexico MPS 101965
2004 03 18.36996 13 04 52.28 -12 19 44.2 19.6   704 – Lincoln Laboratory ETS, New Mexico MPS 101965
2004 03 18.38728 13 04 51.34 -12 19 39.1 19.8   704 – Lincoln Laboratory ETS, New Mexico MPS 101965
2004 03 20.36633 13 03 12.50 -12 09 48.8 19.7   704 – Lincoln Laboratory ETS, New Mexico MPS 101965
2004 03 20.37752 13 03 11.94 -12 09 45.8 19.8   704 – Lincoln Laboratory ETS, New Mexico MPS 101965
2004 03 20.38925 13 03 11.26 -12 09 42.1 19.7   704 – Lincoln Laboratory ETS, New Mexico MPS 101965
2004 03 20.40038 13 03 10.63 -12 09 39.7 20.0   704 – Lincoln Laboratory ETS, New Mexico MPS 101965
2006 08 28.27154 22 33 19.54 -03 02 45.0 19.7 V 703 – Catalina Sky Survey MPS 176784
2006 08 28.27794 22 33 19.15 -03 02 47.0 20.6 V 703 – Catalina Sky Survey MPS 176785
2006 08 28.28436 22 33 18.68 -03 02 48.9 20.0 V 703 – Catalina Sky Survey MPS 176785
2006 08 28.29078 22 33 18.43 -03 02 51.3 20.1 V 703 – Catalina Sky Survey MPS 176785
2006 08 29.24994 22 32 26.69 -03 07 31.2 19.9 V 691 – Steward Observatory, Kitt Peak-Spacewatch MPS 176785
2006 08 29.26725 22 32 25.73 -03 07 36.4 20.0 V 691 – Steward Observatory, Kitt Peak-Spacewatch MPS 176785
2006 08 29.28457 22 32 24.77 -03 07 41.5 19.9 V 691 – Steward Observatory, Kitt Peak-Spacewatch MPS 176785
2006 09 30.11192 22 07 04.22 -05 50 58.8 20.4 V 691 – Steward Observatory, Kitt Peak-Spacewatch MPS 182402
2006 09 30.13041 22 07 03.57 -05 51 03.9 20.8 V 691 – Steward Observatory, Kitt Peak-Spacewatch MPS 182402
2006 09 30.14889 22 07 02.97 -05 51 09.0 20.6 V 691 – Steward Observatory, Kitt Peak-Spacewatch MPS 182402
2006 10 02.12597 22 06 02.48 -05 59 36.7 20.3 V G96 – Mt. Lemmon Survey MPS 182402
2006 10 02.13154 22 06 02.34 -05 59 37.8 19.7 V G96 – Mt. Lemmon Survey MPS 182402
2006 10 02.13711 22 06 02.16 -05 59 39.4 20.7 V G96 – Mt. Lemmon Survey MPS 182402
2006 10 02.14278 22 06 02.01 -05 59 40.7 18.1 V G96 – Mt. Lemmon Survey MPS 182402
2007 12 19.43692 11 20 25.04 -00 01 15.3 20.3 V 703 – Catalina Sky Survey MPS 231694
2007 12 19.44356 11 20 25.40 -00 01 19.3 20.2 V 703 – Catalina Sky Survey MPS 231694
2007 12 19.45015 11 20 25.76 -00 01 21.9 20.0 V 703 – Catalina Sky Survey MPS 231694
2007 12 19.45672 11 20 26.19 -00 01 24.9 19.7 V 703 – Catalina Sky Survey MPS 231694
2008 02 02.39515 11 34 59.98 -03 24 36.7 19.1   704 – Lincoln Laboratory ETS, New Mexico MPS 236114
2008 02 02.42047 11 34 59.41 -03 24 36.0 20.1   704 – Lincoln Laboratory ETS, New Mexico MPS 236114
2008 02 02.43316 11 34 59.06 -03 24 37.3 19.9   704 – Lincoln Laboratory ETS, New Mexico MPS 236114
2008 02 02.44580 11 34 58.74 -03 24 36.5 20.0   704 – Lincoln Laboratory ETS, New Mexico MPS 236114
2008 02 10.33760 11 31 12.01 -03 16 01.5 19.2   704 – Lincoln Laboratory ETS, New Mexico MPS 237339
2008 02 10.34970 11 31 11.54 -03 16 00.3 19.7   704 – Lincoln Laboratory ETS, New Mexico MPS 237339
2008 02 10.36180 11 31 11.11 -03 15 59.0 19.4   704 – Lincoln Laboratory ETS, New Mexico MPS 237339
2008 02 10.37389 11 31 10.70 -03 15 57.4 20.0   704 – Lincoln Laboratory ETS, New Mexico MPS 237339
2008 02 10.38601 11 31 10.21 -03 15 56.1 19.7   704 – Lincoln Laboratory ETS, New Mexico MPS 237339
2008 02 10.41211 11 31 09.21 -03 15 53.1 19.4 V 691 – Steward Observatory, Kitt Peak-Spacewatch MPS 237339
2008 02 10.42973 11 31 08.54 -03 15 51.0 19.3 V 691 – Steward Observatory, Kitt Peak-Spacewatch MPS 237339
2008 02 10.44735 11 31 07.87 -03 15 48.8 19.4 V 691 – Steward Observatory, Kitt Peak-Spacewatch MPS 237339
2008 02 13.32141 11 29 19.94 -03 09 06.1 19.1 r 699 – Lowell Observatory-LONEOS MPS 237339
2008 02 13.34708 11 29 18.66 -03 09 01.9 19.6 r 699 – Lowell Observatory-LONEOS MPS 237339
2008 02 13.37276 11 29 17.60 -03 08 58.1 19.0 r 699 – Lowell Observatory-LONEOS MPS 237339
2008 02 13.39845 11 29 16.51 -03 08 53.2 18.7 r 699 – Lowell Observatory-LONEOS MPS 237339
2008 02 26.39546 11 18 59.44 -02 17 32.9 19.3   704 – Lincoln Laboratory ETS, New Mexico MPS 240553
2008 02 26.40711 11 18 58.77 -02 17 29.9 19.4   704 – Lincoln Laboratory ETS, New Mexico MPS 240553
2008 02 26.43044 11 18 57.50 -02 17 22.0 19.5   704 – Lincoln Laboratory ETS, New Mexico MPS 240553
2008 02 26.44208 11 18 56.80 -02 17 17.1 19.3   704 – Lincoln Laboratory ETS, New Mexico MPS 240553
2008 03 02.33112 11 14 31.40 -01 50 49.9 19.0   704 – Lincoln Laboratory ETS, New Mexico MPS 241907
2008 03 02.34251 11 14 30.77 -01 50 45.9 18.7   704 – Lincoln Laboratory ETS, New Mexico MPS 241907
2008 03 02.35390 11 14 30.09 -01 50 41.3 19.3   704 – Lincoln Laboratory ETS, New Mexico MPS 241907
2008 03 02.36543 11 14 29.48 -01 50 37.9 19.2   704 – Lincoln Laboratory ETS, New Mexico MPS 241907
2008 03 02.37681 11 14 28.76 -01 50 33.7 19.4   704 – Lincoln Laboratory ETS, New Mexico MPS 241907
2008 03 02.45284 11 14 24.39 -01 50 08.9 19.2 V 703 – Catalina Sky Survey MPS 241907
2008 03 02.45581 11 14 24.18 -01 50 06.5 19.0 V 703 – Catalina Sky Survey MPS 241907
